User: anonymous   Login
Location: Bacharowice
(49.9333°N, 19.5833°E)
Time: 23:11:26
(UTC+00:00)
Language:

Cosmos 1536 - Orbit

View from above orbital plane
View from above orbital plane
View from above satellite
View from above satellite

Ground track
Ground track

The orbit data is extracted from the following two-line orbital elements,

1 14699U 84013A   21204.42153605  .00000005  00000-0 -17033-5 0  9995
2 14699  82.5277 319.1242 0011931 352.2342   7.8699 15.05850063 17202
Epoch (UTC): 23 July 2021 10:07:00
Eccentricity: 0.0011931
inclination: 82.5277°
perigee height: 540 km
apogee height: 557 km
right ascension of ascending node: 319.1242°
argument of perigee: 352.2342°
revolutions per day: 15.05850063
mean anomaly at epoch: 7.8699°
orbit number at epoch: 1720

The dashed part of the orbit path shows where the satellite is in the earth's shadow,  

DLR